Location: Henday
(51.9553°N, 114.0254°W)
Time: 00:01:02
(UTC+00:00)

ISS - Visible Passes

Search period start: 07 May 2021 00:00
Search period end: 17 May 2021 00:00
Orbit: 418 x 421 km, 51.6° (Epoch: 06 May)

Date Brightness Start Highest point End Pass type
(mag) Time Alt. Az. Time Alt. Az. Time Alt. Az.
07 May -3.7 09:20:02 52° SSW 09:20:26 56° SSE 09:23:45 10° E visible
07 May -3.8 10:53:47 10° W 10:57:11 87° S 11:00:35 10° E visible
08 May -2.6 08:34:05 32° ESE 08:34:05 32° ESE 08:36:18 10° E visible
08 May -3.8 10:07:01 15° W 10:09:45 86° S 10:13:09 10° E visible
09 May -1.3 07:48:07 14° E 07:48:07 14° E 07:48:48 10° E visible
09 May -3.9 09:21:03 35° WSW 09:22:19 80° S 09:25:43 10° E visible
09 May -3.8 10:55:44 10° W 10:59:07 75° SSW 11:02:30 10° ESE visible
10 May -3.8 08:35:02 68° SSE 08:35:02 68° SSE 08:38:16 10° E visible
10 May -3.8 10:08:18 10° W 10:11:41 83° S 10:15:05 10° E visible
11 May -2.4 07:48:59 29° E 07:48:59 29° E 07:50:50 10° E visible
11 May -3.9 09:21:55 19° W 09:24:15 87° S 09:27:39 10° E visible
11 May -3.5 10:57:42 10° W 11:00:59 49° SSW 11:04:16 10° SE visible
12 May -1.3 07:02:53 13° E 07:02:53 13° E 07:03:22 10° E visible
12 May -3.9 08:35:48 43° W 08:36:49 86° S 08:40:12 10° E visible
12 May -3.8 10:10:14 10° W 10:13:35 62° SSW 10:16:56 10° ESE visible
13 May -3.8 07:49:35 74° ESE 07:49:35 74° ESE 07:52:46 10° E visible
13 May -3.9 09:22:48 10° W 09:26:11 75° SSW 09:29:33 10° ESE visible
13 May -2.8 10:59:46 10° W 11:02:42 28° SSW 11:05:38 10° SSE visible
14 May -3.0 07:03:00 40° E 07:03:00 40° E 07:05:19 10° E visible
14 May -3.9 08:35:52 14° W 08:38:45 83° S 08:42:07 10° E visible
14 May -3.2 10:12:13 10° W 10:15:23 37° SSW 10:18:32 10° SE visible
15 May -2.2 04:35:54 10° S 04:38:13 17° SE 04:40:31 10° E visible
15 May -3.8 06:11:14 10° WSW 06:14:33 57° SSE 06:17:52 10° E visible
15 May -3.9 07:47:55 10° W 07:51:18 87° S 07:54:41 10° E visible
15 May -3.6 09:24:44 10° W 09:28:01 49° SSW 09:31:18 10° SE visible
16 May -3.5 05:23:56 10° SW 05:27:10 44° SSE 05:30:24 10° E visible
16 May -3.9 07:00:27 10° W 07:03:51 86° S 07:07:14 10° E visible
16 May -3.8 08:37:16 10° W 08:40:37 62° SSW 08:43:58 10° ESE visible
16 May -2.4 10:14:28 10° W 10:17:01 20° SW 10:19:34 10° SSE visible
